Regional Weather Roundup
Issued by NWS

Home | Current Version | Previous Version | Graphics & Text | Print | Product List | Glossary On
Versions: 1 2 3 4 5 6 7 8 9 10 11 12 13 14 15 16 17 18 19 20 21 22 23 24 25 26 27 28 29 30 31 32 33 34 35 36 37 38 39 40 41 42 43 44 45 46 47 48 49 50
566
ASUS45 KSLC 240810
RWRUT

UTAH REGIONAL WEATHER ROUNDUP
NATIONAL WEATHER SERVICE SALT LAKE CITY UT
100 AM MST FRI FEB 24 2017

UTZ001>011-023>025-240900-

NORTHERN UTAH

CITY           SKY/WX    TMP DP  RH WIND       PRES   REMARKS
BRIGHAM CITY     N/A     27  23  84 NW7       29.93R WCI  20
HILL AFB       FLURRIES  23  21  93 CALM      29.90S
LOGAN          LGT SNOW  27  23  85 CALM      29.91R FOG
OGDEN          LGT SNOW  24  24 100 W3        29.91R FOG
SALT LAKE CITY CLOUDY    27  24  89 N7        29.92S WCI  19
TOOELE VALLEY  CLOUDY    30  19  64 CALM      29.94R
WENDOVER       CLOUDY    28   9  43 W9        29.95R WCI  20
HEBER CITY     MOCLDY    14  10  85 CALM      29.84S
WEST JORDAN    CLOUDY    28  28 100 N5        29.93R WCI  23

$$

UTZ011>015-024>027-240900-

CENTRAL/NORTHEAST UTAH

CITY           SKY/WX    TMP DP  RH WIND       PRES   REMARKS
PROVO AIRPORT  CLOUDY    27  21  78 N5        29.93R WCI  22
MOAB/CANYONLAN PTCLDY    28  15  58 W8        29.83R WCI  20
DELTA          CLOUDY    23  23 100 CALM      29.93S
PRICE          PTCLDY    21  13  71 NW6       29.81R WCI  13
RICHFIELD      CLOUDY    25  25 100 SW5       29.92  WCI  19
ROOSEVELT      FLURRIES  27  25  93 CALM      29.84R
VERNAL         CLOUDY    23  21  92 CALM      29.81S

$$

UTZ013>016-019>022-027-240900-

SOUTHERN UTAH

CITY           SKY/WX    TMP DP  RH WIND       PRES   REMARKS
BRYCE CANYON   CLEAR     15   9  76 NW12      29.83R WCI   2
CEDAR CITY     MOCLDY    24  15  68 W3        29.88R
MILFORD        PTCLDY    21  19  92 N6        29.91S WCI  13
ST GEORGE      MOSUNNY   40  18  41 W10       29.96R WCI  33
HANKSVILLE     CLOUDY    32  12  43 CALM      29.88S
KANAB          CLEAR     25  16  68 SE1       29.96
BLANDING       PTCLDY    25  17  72 W7        29.90R WCI  17

$$

REGIONAL REPORTS     COLORADO/ARIZONA

CITY           SKY/WX    TMP DP  RH WIND       PRES   REMARKS
CRAIG, CO      CLOUDY    21  14  74 W9        29.77R WCI  11
GRAND JUNCTION MOCLDY    26  22  84 E7        29.82R WCI  18
RIFLE, CO      CLOUDY    22  21  96 CALM      29.80S
MONTROSE, CO   CLOUDY    23  11  60 SE8       29.83R WCI  14
CORTEZ, CO     CLOUDY    22  15  75 CALM      29.83R
COLORADO CITY    N/A     27  18  69 CALM      29.94S
PAGE, AZ       CLEAR     35   7  31 NW3       29.90R
GRAND CANYON   MOCLDY    20  11  68 SW7       29.91R WCI  11
KINGMAN, AZ    CLEAR     31   3  30 S8        29.99R WCI  23
FLAGSTAFF, AZ  CLEAR     21   6  52 W6        29.91R WCI  13

$$

REGIONAL REPORTS    NEVADA/IDAHO/WYOMING

CITY           SKY/WX    TMP DP  RH WIND       PRES   REMARKS
LAS VEGAS, NV  CLEAR     47   5  18 NW15G21   30.00R
ELY, NY        CLOUDY    10   5  80 S6        29.93R WCI   0
ELKO, NV       PTCLDY    21  15  78 SW8       29.99R WCI  11
POCATELLO, ID  LGT SNOW  23  21  92 SW21      29.88S FOG     WCI   8
BURLEY, ID     FLURRIES  27  18  69 W21G30    29.90R WCI  13
FORT BRIDGER,  LGT SNOW  18  18 100 CALM      29.81S
EVANSTON, WY   LGT SNOW  16  12  84 W9        29.78R FOG     WCI   4
ROCK SPRINGS,  LGT SNOW  15  11  83 N8        29.77S FOG     WCI   4

$$




USA.gov is the U.S. government's official web portal to all federal, state and local government web resources and services.